ATLAS 5 CENTAUR DEB, 44686

Orbit data source: Space-Track

ATLAS 5 CENTAUR DEB, 44686 is space debris in HEO originally from a launch on Wed, 17 Oct 2018 UTC launched from the Air Force Eastern Test Range (AFETR). Debris objects in space refer to the collection of defunct objects orbiting the Earth. Examples of debris include non-operational satellites, rocket bodies, and fragments generated from explosions, collisions, or faulty payload assembly.

Loading next visibility...
Identifier
44686, 2018-079AY
Orbit
HEO
Country
Flag of USUS
Related business
Flag of USUnited Launch Alliance/Lockheed Martin (US)
Manufacturer
ULA Decatur
Mission
Spacecraft
Bus & Motor
Unknown
Mass
Unknown
Launch date (UTC)
2018-10-17 (8 years ago)
Launch vehicle
Unknown
Launch site
Air Force Eastern Test Range (AFETR)
Object type
Payload
Rocket body
Debris
Shape & HBR
Unknown shape, 1.1 m
Radar Cross Section
Large (>1 m²)

Expand to show TLE details & history
Last TLE update: 2 days ago

TLE from 2 days ago
0 ATLAS 5 CENTAUR DEB
1 44686U 18079AY  26126.04601750 -.00000069  00000-0  00000+0 0  9998
2 44686  12.5983  76.4095 4647674 232.7264  75.1974  1.69098128 42860
Epoch: 2026-05-06T01:06Z
TLE epoch observation values (Epoch: 2026-05-06T01:06:15.912Z)
Latitude
-0°
Longitude
-164.17685°
Altitude
26,092.032 km
Speed
3.34 km/s
True Right ascension
05h 05m 12s
True Declination
0° 00' 00"
Sunlit
Object was in daylight at epoch
Visualization orbit readout
Latitude
Unknown
Longitude
Unknown
Altitude
Unknown
Speed
Unknown
Apparent Right ascension
Unknown
Apparent Declination
Unknown
Sunlit
N/A
Visualization observer readout
Local Sidereal Time
11:42:01
Azimuth
Unknown
Elevation
Unknown
Doppler factor
Unknown
Orbital elements
Apogee altitude
37,217.243 km
Perigee altitude
9,551.811 km
Semi-major axis
29,762.664 km
Eccentricity
0.46477
Inclination
12.5983°
RAAN
76.4095°
Arg. of periapsis
232.7264°
True anomaly
127.27725°
Mean anomaly
75.1974°
Eccentric anomaly
101.30953°
Mean motion
0.4227 °/min
Orbital period
851.66 mins
BSTAR
0
Loading maneuver chart data...
Computing Atmospheric mass density...

Documentation

Showing up to 5 results
|